(32377) = 1998 HS129 = 2000 QP170

Discovered at Socorro on 2000-08-31 by LINEAR.

Orbit

Orbit type: Main Belt

Note: WebGL enabled browser required.

epoch2024-03-31.0
epoch JD2460400.5
perihelion date2023-05-12.12571
perihelion JD2460076.62571
argument of perihelion (°)36.56042
ascending node (°)309.79305
inclination (°)5.07135
eccentricity0.0430629
perihelion distance (AU)3.0500359
Tisserand w.r.t. Jupiter3.2
ΔV w.r.t. Earth (km/sec)10.9
semimajor axis (AU)3.1872899
mean anomaly (°)56.09808
mean daily motion (°/day)0.17320940
aphelion distance (AU)3.325
period (years)5.69
P-vector [x]0.96997804
P-vector [y]-0.23877701
P-vector [z]-0.04613180
Q-vector [x]0.23351543
Q-vector [y]0.86149180
Q-vector [z]0.45089069
absolute magnitude14.37
phase slope0.15
uncertainty0
referenceMPEC 2024-C163
observations used1324
oppositions22
arc length (days)9871
first opposition used1997
last opposition used2024
residual rms (arc-secs)0.71
perturbers coarse indicatorM-v
perturbers precise indicator003Ek
first observation date used1997-01-06.0
last observation date used2024-01-16.0
computer nameMPCLINUX
JD of orbit computation2456819.511062
perihelion JD uncertainty (days)2.5438E-04
argument of perihelion uncertainty (°)5.8243E-05
ascending node uncertainty (°)3.8108E-05
inclination uncertainty (°)3.8166E-06
eccentricity uncertainty 5.0052E-08
perihelion distance uncertainty (AU)1.5638E-07
Minimum Orbit Intersection Distances (in AU)
for orbit epoch: 2460200.5, reference: E2024-CG3
Mercury2.6479
Venus2.32858
Earth2.04344
Mars1.63667
Jupiter1.91828
Saturn5.8298
Uranus15.1385
Neptune26.7666

Observations

1351 total observations over interval: 1997 01 06.28111 – 2024 01 16.167701
These data are available for download (format description).

Date (UT) J2000 RA J2000 Dec Magn Location Ref
1997 01 06.28111 08 22 42.49 +21 00 05.9 19.2 V 691 – Steward Observatory, Kitt Peak-Spacewatch MPS 19435
1997 01 06.31070 08 22 41.06 +21 00 08.5 19.1 V 691 – Steward Observatory, Kitt Peak-Spacewatch MPS 19435
1997 01 06.33321 08 22 39.98 +21 00 10.7 19.4 V 691 – Steward Observatory, Kitt Peak-Spacewatch MPS 19435
1997 02 04.65991 07 57 57.38 +21 39 09.8   327 – Peking Observatory, Xinglong Station MPS 1155505
1997 02 04.66983 07 57 56.88 +21 39 10.7   327 – Peking Observatory, Xinglong Station MPS 1155505
1997 02 04.67964 07 57 56.38 +21 39 11.0 19.0   327 – Peking Observatory, Xinglong Station MPS 1155505
1998 04 01.23327 12 35 03.46 -10 46 26.8 18.9   704 – Lincoln Laboratory ETS, New Mexico MPS 18992
1998 04 01.25336 12 35 02.55 -10 46 22.1 18.9   704 – Lincoln Laboratory ETS, New Mexico MPS 18992
1998 04 01.27337 12 35 01.64 -10 46 17.4 19.2   704 – Lincoln Laboratory ETS, New Mexico MPS 18992
1998 04 01.29362 12 35 00.63 -10 46 12.8 19.5   704 – Lincoln Laboratory ETS, New Mexico MPS 18992
1998 04 01.31366 12 34 59.41 -10 46 08.1 19.5   704 – Lincoln Laboratory ETS, New Mexico MPS 18992
1998 04 19.23907 12 22 15.45 -09 29 02.7 19.6   704 – Lincoln Laboratory ETS, New Mexico MPS 1421
1998 04 19.26096 12 22 14.42 -09 28 55.8 19.6   704 – Lincoln Laboratory ETS, New Mexico MPS 1421
1998 04 19.28254 12 22 13.55 -09 28 51.6 20.1   704 – Lincoln Laboratory ETS, New Mexico MPS 1421
1998 04 19.30413 12 22 12.77 -09 28 46.3 20.0   704 – Lincoln Laboratory ETS, New Mexico MPS 1421
1998 04 19.32552 12 22 11.83 -09 28 37.8 20.0   704 – Lincoln Laboratory ETS, New Mexico MPS 1421
1998 04 22.14949 12 20 29.28 -09 16 44.1 18.9   704 – Lincoln Laboratory ETS, New Mexico MPS 1421
1998 04 22.16834 12 20 28.38 -09 16 39.3 19.2   704 – Lincoln Laboratory ETS, New Mexico MPS 1421
1998 04 22.18712 12 20 27.85 -09 16 34.9 19.2   704 – Lincoln Laboratory ETS, New Mexico MPS 1421
1998 04 22.20606 12 20 27.06 -09 16 28.7 20.2   704 – Lincoln Laboratory ETS, New Mexico MPS 1421
2000 08 31.30785 23 29 01.10 +01 39 10.1 18.9   704 – Lincoln Laboratory ETS, New Mexico MPS 18338
2000 08 31.32104 23 29 00.52 +01 39 07.4 19.1   704 – Lincoln Laboratory ETS, New Mexico MPS 18338
2000 08 31.33423 23 29 00.01 +01 39 04.8 19.1   704 – Lincoln Laboratory ETS, New Mexico MPS 18338
2000 08 31.34736 23 28 59.39 +01 39 02.8 19.1   704 – Lincoln Laboratory ETS, New Mexico MPS 18338
2000 08 31.36052 23 28 58.82 +01 39 02.7 19.4   704 – Lincoln Laboratory ETS, New Mexico MPS 18338
2000 09 03.26524 23 26 54.02 +01 30 22.2 18.8   704 – Lincoln Laboratory ETS, New Mexico MPS 18338
2000 09 03.27869 23 26 53.36 +01 30 18.2 18.7   704 – Lincoln Laboratory ETS, New Mexico MPS 18338
2000 09 03.29192 23 26 52.84 +01 30 15.3 19.3   704 – Lincoln Laboratory ETS, New Mexico MPS 18338
2000 09 03.30542 23 26 52.15 +01 30 13.2 18.5   704 – Lincoln Laboratory ETS, New Mexico MPS 18338
2000 09 03.31862 23 26 51.55 +01 30 10.9 18.7   704 – Lincoln Laboratory ETS, New Mexico MPS 18338
2000 09 23.25388 23 12 04.87 +00 18 15.5 18.7   704 – Lincoln Laboratory ETS, New Mexico MPS 19435
2000 09 23.26870 23 12 04.22 +00 18 12.2 19.2   704 – Lincoln Laboratory ETS, New Mexico MPS 19435
2000 09 23.28374 23 12 03.54 +00 18 08.5 19.1   704 – Lincoln Laboratory ETS, New Mexico MPS 19435
2000 09 23.29847 23 12 02.88 +00 18 05.1 19.0   704 – Lincoln Laboratory ETS, New Mexico MPS 19435
2000 09 23.31318 23 12 02.27 +00 18 02.0 18.7   704 – Lincoln Laboratory ETS, New Mexico MPS 19435
2000 09 25.24769 23 10 41.63 +00 10 40.3 18.3 R 699 – Lowell Observatory-LONEOS MPS 30085
2000 09 25.27097 23 10 40.68 +00 10 35.3   699 – Lowell Observatory-LONEOS MPS 30085
2000 09 25.29430 23 10 39.72 +00 10 30.1   699 – Lowell Observatory-LONEOS MPS 30085
2000 09 25.31748 23 10 38.72 +00 10 24.6   699 – Lowell Observatory-LONEOS MPS 30085
2000 09 26.27117 23 09 59.75 +00 06 48.2 19.4   704 – Lincoln Laboratory ETS, New Mexico MPS 19435
2000 09 26.28767 23 09 59.08 +00 06 45.6 19.0   704 – Lincoln Laboratory ETS, New Mexico MPS 19435
2000 09 26.30357 23 09 58.41 +00 06 40.7 19.8   704 – Lincoln Laboratory ETS, New Mexico MPS 19435
2000 09 26.31821 23 09 57.76 +00 06 39.0 19.4   704 – Lincoln Laboratory ETS, New Mexico MPS 19435
2000 10 01.22273 23 06 47.86 -00 11 27.7 18.2 R 699 – Lowell Observatory-LONEOS MPS 21032
2000 10 01.24203 23 06 47.12 -00 11 31.7   699 – Lowell Observatory-LONEOS MPS 21032
2000 10 01.26138 23 06 46.38 -00 11 35.9   699 – Lowell Observatory-LONEOS MPS 21032
2000 10 01.28070 23 06 45.61 -00 11 40.8   699 – Lowell Observatory-LONEOS MPS 21032
2000 10 02.315340 23 06 08.001 -00 15 21.82 19.09 V 645 – Apache Point-Sloan Digital Sky Survey MPS 80986
2000 10 02.318812 23 06 07.872 -00 15 22.56 19.82   645 – Apache Point-Sloan Digital Sky Survey MPS 80987
2000 10 03.18598 23 05 37.34 -00 18 24.8 18.4   704 – Lincoln Laboratory ETS, New Mexico MPS 19435
2000 10 03.20119 23 05 36.70 -00 18 27.6 18.9   704 – Lincoln Laboratory ETS, New Mexico MPS 19435
2000 10 03.21647 23 05 36.16 -00 18 31.0 18.6   704 – Lincoln Laboratory ETS, New Mexico MPS 19435
2000 10 03.23177 23 05 35.67 -00 18 34.8 19.2   704 – Lincoln Laboratory ETS, New Mexico MPS 19435
2000 10 03.24698 23 05 35.10 -00 18 38.3 18.9   704 – Lincoln Laboratory ETS, New Mexico MPS 19435
2000 10 06.27886 23 03 53.28 -00 28 57.1 19.9   608 – Haleakala-AMOS MPS 19435
2000 10 06.28984 23 03 52.91 -00 28 59.2 20.0   608 – Haleakala-AMOS MPS 19435
2000 10 06.30030 23 03 52.58 -00 29 01.2 20.1   608 – Haleakala-AMOS MPS 19435
2001 10 27.34174 04 58 58.76 +28 55 24.6 19.3   704 – Lincoln Laboratory ETS, New Mexico MPS 39152
2001 10 27.35810 04 58 58.27 +28 55 26.1 19.5   704 – Lincoln Laboratory ETS, New Mexico MPS 39152
2001 10 27.37447 04 58 57.94 +28 55 27.4 19.1   704 – Lincoln Laboratory ETS, New Mexico MPS 39152
2001 10 27.39084 04 58 57.48 +28 55 27.4 19.2   704 – Lincoln Laboratory ETS, New Mexico MPS 39152
2001 11 11.35522 04 50 28.19 +28 53 40.9 18.9   704 – Lincoln Laboratory ETS, New Mexico MPS 40227
2001 11 11.36986 04 50 27.51 +28 53 40.4 18.9   704 – Lincoln Laboratory ETS, New Mexico MPS 40227
2001 11 11.38451 04 50 26.89 +28 53 39.6 19.1   704 – Lincoln Laboratory ETS, New Mexico MPS 40227
2001 11 11.39914 04 50 26.22 +28 53 39.9 18.9   704 – Lincoln Laboratory ETS, New Mexico MPS 40227
2001 11 11.41378 04 50 25.58 +28 53 38.9 19.1   704 – Lincoln Laboratory ETS, New Mexico MPS 40227
2001 11 21.31542 04 42 32.16 +28 42 16.9 19.0   704 – Lincoln Laboratory ETS, New Mexico MPS 41812
2001 11 21.33031 04 42 31.34 +28 42 15.4 19.5   704 – Lincoln Laboratory ETS, New Mexico MPS 41812
2001 11 21.34548 04 42 30.57 +28 42 12.9 19.4   704 – Lincoln Laboratory ETS, New Mexico MPS 41812
2001 11 21.36058 04 42 29.75 +28 42 11.5 19.1   704 – Lincoln Laboratory ETS, New Mexico MPS 41812
2001 11 24.28825 04 39 56.61 +28 37 12.0 18.7   704 – Lincoln Laboratory ETS, New Mexico MPS 46369
2001 11 24.30298 04 39 55.84 +28 37 10.2 19.0   704 – Lincoln Laboratory ETS, New Mexico MPS 46369
2001 11 24.31772 04 39 54.98 +28 37 09.0 19.3   704 – Lincoln Laboratory ETS, New Mexico MPS 46369
2001 11 24.33244 04 39 54.19 +28 37 06.3 19.1   704 – Lincoln Laboratory ETS, New Mexico MPS 46369
2001 11 24.34715 04 39 53.38 +28 37 04.5 18.9   704 – Lincoln Laboratory ETS, New Mexico MPS 46369
2001 11 24.38155 04 39 51.59 +28 37 00.7 19.2 V 691 – Steward Observatory, Kitt Peak-Spacewatch MPS 46369
2001 11 24.40511 04 39 50.31 +28 36 58.4 18.5 V 691 – Steward Observatory, Kitt Peak-Spacewatch MPS 46369
2001 11 24.42869 04 39 48.99 +28 36 55.3 19.0 V 691 – Steward Observatory, Kitt Peak-Spacewatch MPS 46369
2001 12 10.30132 04 25 36.34 +27 57 49.8 19.0   704 – Lincoln Laboratory ETS, New Mexico MPS 46369
2001 12 10.31639 04 25 35.53 +27 57 47.3 19.4   704 – Lincoln Laboratory ETS, New Mexico MPS 46369
2001 12 10.33138 04 25 34.62 +27 57 45.0 19.2   704 – Lincoln Laboratory ETS, New Mexico MPS 46369
2001 12 10.34639 04 25 33.74 +27 57 41.2 18.5   704 – Lincoln Laboratory ETS, New Mexico MPS 46369
2001 12 15.22758 04 21 27.92 +27 42 35.9 19.0   704 – Lincoln Laboratory ETS, New Mexico MPS 46369
2001 12 15.24268 04 21 27.17 +27 42 33.6 19.2   704 – Lincoln Laboratory ETS, New Mexico MPS 46369
